Location: Hawaiian Village Mobile Home Park
(32.8359°N, 116.9792°W)
Time: 01:48:54
(UTC+00:00)

SL-19 R/B - Visible Passes

Search period start: 06 December 2021 00:00
Search period end: 16 December 2021 00:00
Orbit: 874 x 1209 km, 100.6° (Epoch: 05 December)

Date Brightness Start Highest point End Pass type
(mag) Time Alt. Az. Time Alt. Az. Time Alt. Az.
06 Dec 4.7 01:29:35 10° NNE 01:35:55 65° ESE 01:42:44 10° S visible
06 Dec 6.9 03:15:35 10° NNW 03:19:49 19° WNW 03:24:14 10° WSW visible
06 Dec 6.7 11:37:42 10° ESE 11:41:11 17° ENE 11:44:40 10° NNE visible
06 Dec 4.4 13:19:42 10° S 13:25:09 52° WSW 13:30:35 10° NNW visible
07 Dec 5.3 02:13:46 10° N 02:20:00 58° WNW 02:26:43 10° SSW visible
07 Dec 5.3 12:19:42 10° SE 12:24:56 42° ENE 12:30:09 10° N visible
07 Dec 5.6 14:05:32 10° SW 14:09:30 20° W 14:13:29 10° NW visible
08 Dec 5.0 01:13:36 10° NNE 01:19:49 47° ESE 01:26:27 10° S visible
08 Dec 6.5 02:58:44 10° NNW 03:03:53 26° WNW 03:09:19 10° WSW visible
08 Dec 7.0 11:23:20 10° E 11:25:15 12° ENE 11:27:09 10° NE visible
08 Dec 4.2 13:03:22 10° S 13:08:57 76° WSW 13:14:32 10° NNW visible
09 Dec 4.9 01:57:29 10° NNE 02:03:57 79° WNW 02:10:55 10° SSW visible
09 Dec 7.3 03:45:46 10° NW 03:47:28 11° WNW 03:49:13 10° WNW visible
09 Dec 5.9 12:04:07 10° SE 12:08:51 30° ENE 12:13:39 10° N visible
09 Dec 5.1 13:48:28 10° SSW 13:53:13 29° W 13:58:00 10° NW visible
10 Dec 5.4 00:57:46 10° NE 01:03:41 35° E 01:09:56 10° SSE visible
10 Dec 6.1 02:42:08 10° N 02:47:55 36° WNW 02:54:04 10° SW visible
10 Dec 4.4 12:47:14 10° SSE 12:52:47 76° ENE 12:58:23 10° NNW visible
11 Dec 4.7 01:41:20 10° NNE 01:47:54 78° ESE 01:54:56 10° SSW visible
11 Dec 7.1 03:27:52 10° NNW 03:31:38 16° WNW 03:35:32 10° W visible
11 Dec 6.4 11:48:48 10° ESE 11:52:51 21° ENE 11:56:57 10° NNE visible
11 Dec 4.7 13:31:44 10° S 13:36:57 42° W 13:42:14 10° NNW visible
12 Dec 5.6 02:25:41 10° N 02:31:56 49° WNW 02:38:36 10° SW visible
12 Dec 4.9 12:31:17 10° SE 12:36:39 52° ENE 12:42:06 10° N visible
13 Dec 4.9 01:25:17 10° NNE 01:31:48 58° ESE 01:38:45 10° S visible
13 Dec 6.8 03:10:51 10° NNW 03:15:44 23° WNW 03:20:51 10° WSW visible
13 Dec 6.8 11:33:54 10° E 11:36:54 15° ENE 11:39:56 10° NNE visible
13 Dec 4.3 13:15:15 10° S 13:20:43 61° WSW 13:26:19 10° NNW visible
14 Dec 5.1 02:09:21 10° N 02:15:55 66° WNW 02:22:55 10° SSW visible
14 Dec 5.6 12:15:33 10° SE 12:20:34 37° ENE 12:25:40 10° N visible
14 Dec 5.4 14:00:45 10° SSW 14:05:04 23° W 14:09:28 10° NW visible
15 Dec 5.2 01:09:22 10° NNE 01:15:43 43° ESE 01:22:23 10° S visible
15 Dec 6.4 02:54:10 10° N 02:59:49 31° WNW 03:05:47 10° SW visible
15 Dec 7.1 11:20:29 10° ENE 11:21:01 10° ENE 11:21:33 10° NE visible
15 Dec 4.2 12:58:59 10° SSE 13:04:32 88° WSW 13:10:15 10° NNW visible
